TAP1126 LPPT-GCTS

Flight info

Callsign TAP1126
Flight time 2h 15m
Altitude 37000
Route ULVOT DCT BEXAL UN866 KONBA
Aircraft A21N/M-SADE1E2E3FGHIJ1J3J7M3P2RWXYZ/LB1D1

Departure

Time 2026-05-08 09:39
Airport Lisbon Humberto Delgado Airport (LPPT)

Arrival

Time 2026-05-08 11:54
Airport Tenerife Sur Airport (GCTS)
Time Latitude Longitude Altitude Speed Heading
2026-05-08 09:06 38.77254 -9.13153 351 ft 0 kts 77°
2026-05-08 09:31 38.77251 -9.13173 354 ft 4 kts 77°
2026-05-08 09:31 38.77246 -9.13201 352 ft 3 kts 77°
2026-05-08 09:32 38.77236 -9.13227 352 ft 4 kts 28°
2026-05-08 09:32 38.77220 -9.13231 351 ft 1 kts 348°
2026-05-08 09:32 38.77241 -9.13236 349 ft 1 kts 348°
2026-05-08 09:34 38.77242 -9.13236 349 ft 1 kts 348°
2026-05-08 09:34 38.77258 -9.13241 349 ft 4 kts 348°
2026-05-08 09:35 38.77295 -9.13251 343 ft 7 kts 349°
2026-05-08 09:35 38.77358 -9.13263 351 ft 11 kts 352°
2026-05-08 09:35 38.77445 -9.13283 343 ft 14 kts 348°
2026-05-08 09:35 38.77554 -9.13312 343 ft 18 kts 348°
2026-05-08 09:36 38.77682 -9.13323 346 ft 19 kts 347°
2026-05-08 09:36 38.77822 -9.13362 355 ft 22 kts 348°
2026-05-08 09:36 38.77972 -9.13403 359 ft 19 kts 348°
2026-05-08 09:36 38.78107 -9.13377 369 ft 21 kts 23°
2026-05-08 09:37 38.78248 -9.13302 367 ft 23 kts 22°
2026-05-08 09:37 38.78398 -9.13222 366 ft 21 kts 15°
2026-05-08 09:37 38.78509 -9.13244 372 ft 16 kts 328°
2026-05-08 09:37 38.78556 -9.13338 367 ft 11 kts 291°
2026-05-08 09:38 38.78517 -9.13388 367 ft 0 kts 202°
2026-05-08 09:38 38.78510 -9.13392 367 ft 11 kts 202°
2026-05-08 09:38 38.78193 -9.13560 372 ft 85 kts 201°
2026-05-08 09:38 38.77454 -9.13957 369 ft 142 kts 201°
2026-05-08 09:39 38.76510 -9.14474 807 ft 146 kts 199°
2026-05-08 09:39 38.75599 -9.14963 1460 ft 143 kts 200°
2026-05-08 09:39 38.74613 -9.15482 1844 ft 166 kts 200°
2026-05-08 09:39 38.73464 -9.16096 2340 ft 191 kts 201°
2026-05-08 09:40 38.72141 -9.16805 2777 ft 222 kts 201°
2026-05-08 09:40 38.70646 -9.17604 3435 ft 240 kts 202°
2026-05-08 09:40 38.69076 -9.18443 4352 ft 247 kts 202°
2026-05-08 09:40 38.67476 -9.19299 5314 ft 251 kts 202°
2026-05-08 09:41 38.65856 -9.20165 6297 ft 254 kts 203°
2026-05-08 09:41 38.64201 -9.21032 7198 ft 259 kts 200°
2026-05-08 09:41 38.62470 -9.21720 8128 ft 263 kts 197°
2026-05-08 09:41 38.60689 -9.22343 9073 ft 267 kts 196°
2026-05-08 09:42 38.58876 -9.22969 10020 ft 273 kts 196°
2026-05-08 09:42 38.56968 -9.23636 10460 ft 296 kts 197°
2026-05-08 09:42 38.54971 -9.24611 10777 ft 319 kts 206°
2026-05-08 09:42 38.52907 -9.25905 11074 ft 342 kts 207°
2026-05-08 09:43 38.50719 -9.27308 11346 ft 362 kts 207°
2026-05-08 09:43 38.48411 -9.28780 11657 ft 378 kts 207°
2026-05-08 09:43 38.46069 -9.30264 12183 ft 384 kts 207°
2026-05-08 09:43 38.43661 -9.31782 12798 ft 388 kts 207°
2026-05-08 09:44 38.41233 -9.33314 13458 ft 391 kts 208°
2026-05-08 09:44 38.38783 -9.34855 14011 ft 395 kts 208°
2026-05-08 09:44 38.36314 -9.36408 14532 ft 397 kts 208°
2026-05-08 09:44 38.33826 -9.37970 15109 ft 400 kts 207°
2026-05-08 09:45 38.31323 -9.39541 15676 ft 402 kts 207°
2026-05-08 09:45 38.28806 -9.41121 16177 ft 405 kts 207°
2026-05-08 09:45 38.26274 -9.42708 16650 ft 406 kts 207°
2026-05-08 09:45 38.23737 -9.44296 17125 ft 407 kts 207°
2026-05-08 09:46 38.21188 -9.45891 17577 ft 409 kts 207°
2026-05-08 09:46 38.18625 -9.47493 18061 ft 411 kts 207°
2026-05-08 09:46 38.16048 -9.49102 18466 ft 414 kts 207°
2026-05-08 09:46 38.13460 -9.50718 18853 ft 415 kts 207°
2026-05-08 09:47 38.10859 -9.52339 19259 ft 417 kts 207°
2026-05-08 09:47 38.08247 -9.53967 19702 ft 419 kts 207°
2026-05-08 09:47 38.05623 -9.55601 20127 ft 421 kts 208°
2026-05-08 09:47 38.03022 -9.57219 20528 ft 423 kts 208°
2026-05-08 09:48 38.00412 -9.58965 20988 ft 424 kts 213°
2026-05-08 09:48 37.98024 -9.61164 21513 ft 426 kts 220°
2026-05-08 09:48 37.95751 -9.63581 22027 ft 428 kts 221°
2026-05-08 09:48 37.93483 -9.66030 22487 ft 429 kts 222°
2026-05-08 09:49 37.91198 -9.68483 22938 ft 432 kts 222°
2026-05-08 09:49 37.88900 -9.70940 23374 ft 434 kts 222°
2026-05-08 09:49 37.86586 -9.73406 23788 ft 436 kts 222°
2026-05-08 09:49 37.84271 -9.75870 24311 ft 433 kts 222°
2026-05-08 09:50 37.81972 -9.78311 24881 ft 430 kts 222°
2026-05-08 09:50 37.79692 -9.80730 25448 ft 426 kts 222°
2026-05-08 09:50 37.77429 -9.83130 26012 ft 423 kts 222°
2026-05-08 09:50 37.75188 -9.85507 26659 ft 418 kts 222°
2026-05-08 09:51 37.72972 -9.87856 27265 ft 414 kts 222°
2026-05-08 09:51 37.70773 -9.90181 27843 ft 410 kts 222°
2026-05-08 09:51 37.68593 -9.92487 28393 ft 407 kts 222°
2026-05-08 09:51 37.66456 -9.94744 28936 ft 405 kts 222°
2026-05-08 09:52 37.64276 -9.97045 29482 ft 402 kts 221°
2026-05-08 09:52 37.62136 -9.99237 29996 ft 401 kts 219°
2026-05-08 09:52 37.59888 -10.01300 30441 ft 399 kts 218°
2026-05-08 09:52 37.57638 -10.03329 30889 ft 396 kts 218°
2026-05-08 09:53 37.55401 -10.05343 31324 ft 394 kts 218°
2026-05-08 09:53 37.53174 -10.07349 31754 ft 392 kts 218°
2026-05-08 09:53 37.50961 -10.09341 32153 ft 390 kts 218°
2026-05-08 09:53 37.48759 -10.11324 32586 ft 388 kts 218°
2026-05-08 09:54 37.46568 -10.13296 32990 ft 386 kts 218°
2026-05-08 09:54 37.44391 -10.15256 33387 ft 384 kts 218°
2026-05-08 09:54 37.42223 -10.17205 33773 ft 382 kts 218°
2026-05-08 09:54 37.40061 -10.19145 34072 ft 381 kts 218°
2026-05-08 09:55 37.37899 -10.21085 34316 ft 382 kts 217°
2026-05-08 09:55 37.35730 -10.23028 34514 ft 383 kts 218°
2026-05-08 09:55 37.33559 -10.24973 34713 ft 384 kts 218°
2026-05-08 09:55 37.31382 -10.26921 34915 ft 385 kts 218°
2026-05-08 09:56 37.29201 -10.28873 35108 ft 385 kts 218°
2026-05-08 09:56 37.27015 -10.30826 35300 ft 386 kts 218°
2026-05-08 09:56 37.24826 -10.32781 35480 ft 386 kts 218°
2026-05-08 09:56 37.22640 -10.34733 35682 ft 386 kts 218°
2026-05-08 09:57 37.18288 -10.38614 36038 ft 387 kts 218°
2026-05-08 09:57 37.16090 -10.40569 36204 ft 387 kts 218°
2026-05-08 09:57 37.13889 -10.42525 36357 ft 388 kts 218°
2026-05-08 09:58 37.11688 -10.44483 36518 ft 389 kts 218°
2026-05-08 09:58 37.09481 -10.46444 36667 ft 389 kts 218°
2026-05-08 09:58 37.07272 -10.48405 36824 ft 390 kts 218°
2026-05-08 09:58 37.05059 -10.50370 36933 ft 391 kts 218°
2026-05-08 09:59 37.00608 -10.54312 36886 ft 392 kts 218°
2026-05-08 09:59 36.96182 -10.58230 36892 ft 389 kts 218°
2026-05-08 10:00 36.91773 -10.62133 36885 ft 388 kts 218°
2026-05-08 10:00 36.87365 -10.66024 36885 ft 388 kts 218°
2026-05-08 10:01 36.82952 -10.69911 36889 ft 388 kts 218°
2026-05-08 10:01 36.78569 -10.73770 36877 ft 388 kts 218°
2026-05-08 10:02 36.74149 -10.77652 36854 ft 389 kts 218°
2026-05-08 10:02 36.69739 -10.81521 36875 ft 388 kts 218°
2026-05-08 10:03 36.65322 -10.85392 36877 ft 388 kts 218°
2026-05-08 10:03 36.60904 -10.89259 36874 ft 388 kts 218°
2026-05-08 10:04 36.56485 -10.93122 36874 ft 388 kts 218°
2026-05-08 10:04 36.52062 -10.96979 36879 ft 389 kts 218°
2026-05-08 10:05 36.48383 -11.00184 36877 ft 389 kts 218°
2026-05-08 10:05 36.43967 -11.04024 36870 ft 387 kts 218°
2026-05-08 10:06 36.39553 -11.07863 36874 ft 387 kts 218°
2026-05-08 10:06 36.35137 -11.11694 36873 ft 387 kts 218°
2026-05-08 10:07 36.30721 -11.15519 36877 ft 387 kts 218°
2026-05-08 10:07 36.26304 -11.19339 36871 ft 387 kts 218°
2026-05-08 10:08 36.21887 -11.23156 36870 ft 387 kts 218°
2026-05-08 10:08 36.17488 -11.26951 36859 ft 383 kts 219°
2026-05-08 10:09 36.13113 -11.30722 36872 ft 384 kts 219°
2026-05-08 10:09 36.08759 -11.34468 36874 ft 384 kts 218°
2026-05-08 10:10 36.04372 -11.38238 36867 ft 384 kts 218°
2026-05-08 10:10 35.99984 -11.42005 36875 ft 384 kts 218°
2026-05-08 10:11 35.95593 -11.45773 36875 ft 384 kts 219°
2026-05-08 10:11 35.91273 -11.49581 36865 ft 380 kts 219°
2026-05-08 10:12 35.86971 -11.53371 36872 ft 380 kts 219°
2026-05-08 10:12 35.82664 -11.57152 36873 ft 380 kts 219°
2026-05-08 10:13 35.78357 -11.60928 36871 ft 380 kts 219°
2026-05-08 10:13 35.74076 -11.64675 36872 ft 380 kts 219°
2026-05-08 10:14 35.69763 -11.68442 36874 ft 380 kts 219°
2026-05-08 10:14 35.65458 -11.72200 36865 ft 378 kts 220°
2026-05-08 10:15 35.61174 -11.75936 36869 ft 378 kts 220°
2026-05-08 10:15 35.56884 -11.79671 36869 ft 378 kts 220°
2026-05-08 10:16 35.52593 -11.83400 36870 ft 378 kts 219°
2026-05-08 10:16 35.48306 -11.87122 36871 ft 378 kts 219°
2026-05-08 10:17 35.44013 -11.90845 36871 ft 378 kts 219°
2026-05-08 10:17 35.39720 -11.94561 36870 ft 378 kts 219°
2026-05-08 10:18 35.35427 -11.98273 36873 ft 378 kts 219°
2026-05-08 10:18 35.31131 -12.01983 36874 ft 378 kts 219°
2026-05-08 10:19 35.26860 -12.05666 36874 ft 379 kts 219°
2026-05-08 10:20 35.20377 -12.11251 36868 ft 380 kts 219°
2026-05-08 10:20 35.16053 -12.14969 36867 ft 380 kts 219°
2026-05-08 10:21 35.11736 -12.18676 36853 ft 377 kts 220°
2026-05-08 10:21 35.07455 -12.22345 36864 ft 376 kts 220°
2026-05-08 10:22 35.03167 -12.26009 36867 ft 376 kts 220°
2026-05-08 10:22 34.98883 -12.29668 36870 ft 376 kts 220°
2026-05-08 10:23 34.94595 -12.33329 36870 ft 376 kts 220°
2026-05-08 10:23 34.90307 -12.36985 36868 ft 376 kts 220°
2026-05-08 10:24 34.86050 -12.40612 36824 ft 376 kts 220°
2026-05-08 10:24 34.81783 -12.44243 36864 ft 373 kts 220°
2026-05-08 10:25 34.77518 -12.47867 36875 ft 374 kts 220°
2026-05-08 10:25 34.73252 -12.51486 36867 ft 374 kts 220°
2026-05-08 10:26 34.68989 -12.55099 36873 ft 374 kts 220°
2026-05-08 10:26 34.64722 -12.58707 36873 ft 374 kts 220°
2026-05-08 10:27 34.60459 -12.62311 36873 ft 374 kts 220°
2026-05-08 10:27 34.56184 -12.65922 36852 ft 374 kts 220°
2026-05-08 10:28 34.51954 -12.69484 36863 ft 370 kts 220°
2026-05-08 10:28 34.47726 -12.73045 36866 ft 370 kts 220°
2026-05-08 10:29 34.43501 -12.76598 36872 ft 370 kts 220°
2026-05-08 10:29 34.39287 -12.80139 36875 ft 372 kts 220°
2026-05-08 10:30 34.35030 -12.83708 36877 ft 372 kts 220°
2026-05-08 10:30 34.30773 -12.87273 36832 ft 372 kts 221°
2026-05-08 10:31 34.26520 -12.90832 36864 ft 367 kts 221°
2026-05-08 10:31 34.22325 -12.94366 36876 ft 368 kts 221°
2026-05-08 10:32 34.18135 -12.97906 36880 ft 368 kts 221°
2026-05-08 10:32 34.13941 -13.01441 36878 ft 368 kts 221°
2026-05-08 10:33 34.09745 -13.04973 36872 ft 368 kts 221°
2026-05-08 10:33 34.05548 -13.08502 36875 ft 368 kts 221°
2026-05-08 10:34 34.01375 -13.12004 36842 ft 370 kts 221°
2026-05-08 10:34 33.97176 -13.15524 36894 ft 365 kts 221°
2026-05-08 10:35 33.93000 -13.19022 36884 ft 366 kts 221°
2026-05-08 10:35 33.88819 -13.22519 36881 ft 366 kts 221°
2026-05-08 10:36 33.84639 -13.26010 36878 ft 366 kts 221°
2026-05-08 10:36 33.80455 -13.29501 36883 ft 366 kts 221°
2026-05-08 10:37 33.76272 -13.32988 36888 ft 366 kts 221°
2026-05-08 10:37 33.72087 -13.36472 36843 ft 367 kts 222°
2026-05-08 10:38 33.67923 -13.39932 36875 ft 363 kts 222°
2026-05-08 10:38 33.63770 -13.43382 36880 ft 363 kts 222°
2026-05-08 10:39 33.59643 -13.46805 36884 ft 363 kts 222°
2026-05-08 10:39 33.55486 -13.50248 36920 ft 364 kts 222°
2026-05-08 10:40 33.51311 -13.53703 36897 ft 365 kts 222°
2026-05-08 10:40 33.47132 -13.57158 36889 ft 365 kts 222°
2026-05-08 10:41 33.42928 -13.60629 36867 ft 370 kts 222°
2026-05-08 10:41 33.38742 -13.64074 36890 ft 363 kts 222°
2026-05-08 10:42 33.34585 -13.67500 36895 ft 363 kts 222°
2026-05-08 10:42 33.30424 -13.70921 36889 ft 363 kts 222°
2026-05-08 10:43 33.26264 -13.74341 36888 ft 363 kts 222°
2026-05-08 10:43 33.22102 -13.77758 36903 ft 363 kts 222°
2026-05-08 10:44 33.17941 -13.81172 36899 ft 363 kts 222°
2026-05-08 10:44 33.13792 -13.84569 36886 ft 365 kts 222°
2026-05-08 10:45 33.09586 -13.87982 36904 ft 367 kts 222°
2026-05-08 10:45 33.05365 -13.91404 36903 ft 367 kts 222°
2026-05-08 10:46 33.01141 -13.94825 36900 ft 367 kts 222°
2026-05-08 10:46 32.96918 -13.98243 36907 ft 367 kts 222°
2026-05-08 10:47 32.92694 -14.01658 36903 ft 367 kts 222°
2026-05-08 10:47 32.88469 -14.05066 36909 ft 366 kts 222°
2026-05-08 10:48 32.84254 -14.08467 36910 ft 366 kts 223°
2026-05-08 10:48 32.80039 -14.11866 36911 ft 366 kts 223°
2026-05-08 10:49 32.75851 -14.15238 36911 ft 366 kts 223°
2026-05-08 10:49 32.71607 -14.18647 36911 ft 366 kts 222°
2026-05-08 10:50 32.67418 -14.22008 36914 ft 367 kts 223°
2026-05-08 10:50 32.63179 -14.25409 36918 ft 368 kts 223°
2026-05-08 10:51 32.58928 -14.28808 36915 ft 368 kts 223°
2026-05-08 10:51 32.54683 -14.32204 36914 ft 368 kts 223°
2026-05-08 10:52 32.50439 -14.35596 36921 ft 368 kts 223°
2026-05-08 10:52 32.46189 -14.38986 36917 ft 368 kts 223°
2026-05-08 10:53 32.41970 -14.42354 36927 ft 368 kts 223°
2026-05-08 10:53 32.37719 -14.45739 36927 ft 368 kts 223°
2026-05-08 10:54 32.33466 -14.49121 36924 ft 368 kts 223°
2026-05-08 10:54 32.29215 -14.52501 36887 ft 368 kts 223°
2026-05-08 10:55 32.24954 -14.55879 36921 ft 369 kts 223°
2026-05-08 10:55 32.20686 -14.59260 36935 ft 370 kts 223°
2026-05-08 10:56 32.16403 -14.62651 36936 ft 371 kts 223°
2026-05-08 10:56 32.12118 -14.66041 36935 ft 371 kts 223°
2026-05-08 10:57 32.07835 -14.69422 36937 ft 371 kts 223°
2026-05-08 10:57 32.01427 -14.74479 36872 ft 372 kts 223°
2026-05-08 10:58 31.97114 -14.77877 36922 ft 374 kts 223°
2026-05-08 10:58 31.92787 -14.81278 36943 ft 374 kts 223°
2026-05-08 10:59 31.88461 -14.84676 36944 ft 374 kts 223°
2026-05-08 10:59 31.84138 -14.88071 36951 ft 374 kts 223°
2026-05-08 11:00 31.79811 -14.91462 36954 ft 373 kts 223°
2026-05-08 11:00 31.75489 -14.94849 36959 ft 374 kts 223°
2026-05-08 11:01 31.71175 -14.98227 36888 ft 377 kts 223°
2026-05-08 11:01 31.66795 -15.01646 36936 ft 378 kts 223°
2026-05-08 11:02 31.60214 -15.06780 36958 ft 379 kts 223°
2026-05-08 11:03 31.55827 -15.10199 36960 ft 379 kts 223°
2026-05-08 11:03 31.51438 -15.13618 36960 ft 379 kts 223°
2026-05-08 11:04 31.47049 -15.17031 36966 ft 379 kts 223°
2026-05-08 11:04 31.42654 -15.20441 36889 ft 380 kts 223°
2026-05-08 11:05 31.38259 -15.23847 36943 ft 382 kts 223°
2026-05-08 11:05 31.33816 -15.27272 36963 ft 383 kts 223°
2026-05-08 11:06 31.29328 -15.30635 36962 ft 387 kts 220°
2026-05-08 11:06 31.24605 -15.33677 36967 ft 388 kts 219°
2026-05-08 11:07 31.20666 -15.36187 36967 ft 388 kts 219°
2026-05-08 11:07 31.15929 -15.39207 36969 ft 388 kts 219°
2026-05-08 11:08 31.11181 -15.42228 36943 ft 390 kts 219°
2026-05-08 11:08 31.06411 -15.45263 36967 ft 391 kts 219°
2026-05-08 11:09 31.01631 -15.48296 36973 ft 391 kts 219°
2026-05-08 11:09 30.96859 -15.51329 36979 ft 391 kts 219°
2026-05-08 11:10 30.92115 -15.54332 36973 ft 391 kts 219°
2026-05-08 11:10 30.87340 -15.57358 36983 ft 391 kts 219°
2026-05-08 11:11 30.82560 -15.60384 36930 ft 394 kts 218°
2026-05-08 11:11 30.77735 -15.63435 36981 ft 395 kts 218°
2026-05-08 11:12 30.72903 -15.66486 36996 ft 395 kts 219°
2026-05-08 11:12 30.68068 -15.69534 36983 ft 395 kts 219°
2026-05-08 11:13 30.63233 -15.72580 36985 ft 395 kts 219°
2026-05-08 11:13 30.58395 -15.75621 36986 ft 395 kts 219°
2026-05-08 11:14 30.53551 -15.78657 36933 ft 397 kts 218°
2026-05-08 11:14 30.48674 -15.81723 36977 ft 399 kts 218°
2026-05-08 11:15 30.43782 -15.84786 36991 ft 400 kts 218°
2026-05-08 11:15 30.38928 -15.87825 36993 ft 399 kts 218°
2026-05-08 11:16 30.34034 -15.90883 36991 ft 400 kts 218°
2026-05-08 11:16 30.29147 -15.93943 36994 ft 400 kts 218°
2026-05-08 11:17 30.24249 -15.96999 36958 ft 401 kts 218°
2026-05-08 11:17 30.19326 -16.00067 36993 ft 403 kts 218°
2026-05-08 11:18 30.14377 -16.03140 37003 ft 404 kts 218°
2026-05-08 11:18 30.09431 -16.06220 37003 ft 404 kts 218°
2026-05-08 11:19 30.04477 -16.09286 37006 ft 404 kts 218°
2026-05-08 11:19 29.99566 -16.12338 37007 ft 404 kts 218°
2026-05-08 11:20 29.94623 -16.15403 36971 ft 404 kts 218°
2026-05-08 11:20 29.89652 -16.18476 37005 ft 406 kts 218°
2026-05-08 11:21 29.84662 -16.21526 37005 ft 406 kts 218°
2026-05-08 11:21 29.79685 -16.24598 37006 ft 406 kts 218°
2026-05-08 11:22 29.74719 -16.27680 37008 ft 406 kts 218°
2026-05-08 11:22 29.69746 -16.30756 37011 ft 406 kts 218°
2026-05-08 11:23 29.64770 -16.33819 37008 ft 406 kts 218°
2026-05-08 11:23 29.59776 -16.36876 37012 ft 409 kts 217°
2026-05-08 11:24 29.54409 -16.39346 37016 ft 418 kts 211°
2026-05-08 11:24 29.48985 -16.41628 37014 ft 418 kts 211°
2026-05-08 11:25 29.43535 -16.43943 37017 ft 418 kts 211°
2026-05-08 11:25 29.38085 -16.46259 37017 ft 418 kts 211°
2026-05-08 11:26 29.32629 -16.48577 36998 ft 419 kts 211°
2026-05-08 11:26 29.27156 -16.50898 36959 ft 419 kts 211°
2026-05-08 11:26 29.24421 -16.52057 36766 ft 419 kts 211°
2026-05-08 11:27 29.21690 -16.53216 36534 ft 419 kts 211°
2026-05-08 11:27 29.18957 -16.54373 36286 ft 419 kts 211°
2026-05-08 11:27 29.16223 -16.55528 36041 ft 419 kts 211°
2026-05-08 11:27 29.13484 -16.56685 35790 ft 420 kts 210°
2026-05-08 11:28 29.10745 -16.57843 35551 ft 420 kts 210°
2026-05-08 11:28 29.08004 -16.59003 35308 ft 420 kts 210°
2026-05-08 11:28 29.05254 -16.60165 35009 ft 422 kts 210°
2026-05-08 11:28 29.02493 -16.61329 34776 ft 424 kts 210°
2026-05-08 11:29 28.99726 -16.62495 34545 ft 424 kts 210°
2026-05-08 11:29 28.96952 -16.63664 34277 ft 425 kts 210°
2026-05-08 11:29 28.94218 -16.64815 33955 ft 425 kts 210°
2026-05-08 11:29 28.91441 -16.65986 33565 ft 426 kts 210°
2026-05-08 11:30 28.88662 -16.67157 33176 ft 426 kts 210°
2026-05-08 11:30 28.85877 -16.68328 32791 ft 427 kts 209°
2026-05-08 11:30 28.83090 -16.69498 32408 ft 427 kts 209°
2026-05-08 11:30 28.80297 -16.70675 32031 ft 429 kts 209°
2026-05-08 11:31 28.77497 -16.71851 31660 ft 430 kts 209°
2026-05-08 11:31 28.74684 -16.73031 31255 ft 432 kts 209°
2026-05-08 11:31 28.71858 -16.74214 30896 ft 433 kts 209°
2026-05-08 11:31 28.69023 -16.75402 30539 ft 434 kts 208°
2026-05-08 11:32 28.66183 -16.76586 30194 ft 435 kts 208°
2026-05-08 11:32 28.63339 -16.77776 29796 ft 436 kts 208°
2026-05-08 11:32 28.60490 -16.78967 29367 ft 437 kts 208°
2026-05-08 11:32 28.57634 -16.80162 28868 ft 437 kts 208°
2026-05-08 11:33 28.54778 -16.81355 28351 ft 438 kts 208°
2026-05-08 11:33 28.51912 -16.82551 27841 ft 439 kts 208°
2026-05-08 11:33 28.49041 -16.83748 27334 ft 440 kts 207°
2026-05-08 11:33 28.46162 -16.84948 26767 ft 442 kts 207°
2026-05-08 11:34 28.43287 -16.86147 25926 ft 439 kts 207°
2026-05-08 11:34 28.40420 -16.87342 24998 ft 437 kts 207°
2026-05-08 11:34 28.37614 -16.88507 24214 ft 433 kts 207°
2026-05-08 11:34 28.34798 -16.89677 23495 ft 430 kts 206°
2026-05-08 11:35 28.31997 -16.90841 22687 ft 427 kts 206°
2026-05-08 11:35 28.29229 -16.91992 22139 ft 420 kts 206°
2026-05-08 11:35 28.26426 -16.93166 21757 ft 434 kts 206°
2026-05-08 11:35 28.23628 -16.94328 21379 ft 423 kts 206°
2026-05-08 11:36 28.20832 -16.95305 20836 ft 421 kts 199°
2026-05-08 11:36 28.17919 -16.95680 20249 ft 425 kts 187°
2026-05-08 11:36 28.14967 -16.95325 19641 ft 432 kts 174°
2026-05-08 11:36 28.12101 -16.94221 19063 ft 440 kts 160°
2026-05-08 11:37 28.09407 -16.92579 18485 ft 439 kts 156°
2026-05-08 11:37 28.06776 -16.90871 17742 ft 433 kts 155°
2026-05-08 11:37 28.04131 -16.89173 17057 ft 446 kts 155°
2026-05-08 11:37 28.01417 -16.87456 16330 ft 446 kts 155°
2026-05-08 11:38 27.98724 -16.85754 15606 ft 441 kts 155°
2026-05-08 11:38 27.96056 -16.84079 14890 ft 436 kts 155°
2026-05-08 11:38 27.93418 -16.82430 14183 ft 430 kts 155°
2026-05-08 11:38 27.90861 -16.80826 13443 ft 423 kts 155°
2026-05-08 11:39 27.88302 -16.79220 12676 ft 417 kts 154°
2026-05-08 11:39 27.85782 -16.77641 11929 ft 411 kts 154°
2026-05-08 11:39 27.83311 -16.76092 11447 ft 399 kts 154°
2026-05-08 11:39 27.80927 -16.74599 11149 ft 384 kts 154°
2026-05-08 11:40 27.78661 -16.73127 10967 ft 369 kts 149°
2026-05-08 11:40 27.76679 -16.71376 10804 ft 357 kts 137°
2026-05-08 11:40 27.75303 -16.69105 10667 ft 347 kts 115°
2026-05-08 11:40 27.74774 -16.66507 10532 ft 336 kts 91°
2026-05-08 11:41 27.75166 -16.63982 10399 ft 321 kts 65°
2026-05-08 11:41 27.76202 -16.61815 10272 ft 307 kts 57°
2026-05-08 11:41 27.77232 -16.59750 10145 ft 297 kts 60°
2026-05-08 11:41 27.78154 -16.57708 9991 ft 288 kts 62°
2026-05-08 11:42 27.79002 -16.55688 9762 ft 282 kts 64°
2026-05-08 11:42 27.79799 -16.53685 9503 ft 279 kts 64°
2026-05-08 11:42 27.80577 -16.51683 9246 ft 278 kts 65°
2026-05-08 11:42 27.81340 -16.49685 8993 ft 277 kts 65°
2026-05-08 11:43 27.82095 -16.47691 8737 ft 276 kts 65°
2026-05-08 11:43 27.82845 -16.45703 8477 ft 275 kts 66°
2026-05-08 11:43 27.83592 -16.43722 8235 ft 273 kts 66°
2026-05-08 11:43 27.84327 -16.41744 7984 ft 273 kts 66°
2026-05-08 11:44 27.85062 -16.39770 7743 ft 272 kts 66°
2026-05-08 11:44 27.85785 -16.37836 7500 ft 270 kts 66°
2026-05-08 11:44 27.86514 -16.35882 7259 ft 270 kts 66°
2026-05-08 11:44 27.87247 -16.33937 7018 ft 269 kts 66°
2026-05-08 11:45 27.87974 -16.31990 6744 ft 269 kts 66°
2026-05-08 11:45 27.88707 -16.30041 6457 ft 269 kts 64°
2026-05-08 11:45 27.89761 -16.28357 6117 ft 259 kts 34°
2026-05-08 11:45 27.91352 -16.27600 5826 ft 243 kts 359°
2026-05-08 11:46 27.92939 -16.27922 5594 ft 227 kts 332°
2026-05-08 11:46 27.94356 -16.28668 5367 ft 224 kts 329°
2026-05-08 11:46 27.95770 -16.29423 5135 ft 225 kts 330°
2026-05-08 11:46 27.97198 -16.30149 4885 ft 225 kts 332°
2026-05-08 11:47 27.98629 -16.30858 4619 ft 224 kts 332°
2026-05-08 11:47 28.00053 -16.31554 4354 ft 222 kts 333°
2026-05-08 11:47 28.01456 -16.32233 4142 ft 215 kts 333°
2026-05-08 11:47 28.02813 -16.32881 3888 ft 210 kts 333°
2026-05-08 11:48 28.04154 -16.33518 3542 ft 208 kts 333°
2026-05-08 11:48 28.05486 -16.34156 3204 ft 208 kts 334°
2026-05-08 11:48 28.06816 -16.34781 2921 ft 205 kts 334°
2026-05-08 11:48 28.08099 -16.35398 2670 ft 201 kts 333°
2026-05-08 11:49 28.09364 -16.36004 2476 ft 193 kts 330°
2026-05-08 11:49 28.10444 -16.36851 2457 ft 187 kts 303°
2026-05-08 11:49 28.10895 -16.38180 2461 ft 181 kts 270°
2026-05-08 11:49 28.10687 -16.39585 2481 ft 182 kts 253°
2026-05-08 11:50 28.10169 -16.40874 2494 ft 173 kts 248°
2026-05-08 11:50 28.09720 -16.42119 2534 ft 170 kts 249°
2026-05-08 11:50 28.09283 -16.43363 2475 ft 169 kts 249°
2026-05-08 11:50 28.08848 -16.44611 2303 ft 168 kts 250°
2026-05-08 11:51 28.08430 -16.45811 2118 ft 158 kts 250°
2026-05-08 11:51 28.08041 -16.46929 1899 ft 148 kts 250°
2026-05-08 11:51 28.07678 -16.47971 1687 ft 136 kts 250°
2026-05-08 11:51 28.07346 -16.48926 1499 ft 129 kts 251°
2026-05-08 11:52 28.07020 -16.49863 1341 ft 127 kts 249°
2026-05-08 11:52 28.06690 -16.50810 1143 ft 131 kts 248°
2026-05-08 11:52 28.06346 -16.51768 959 ft 133 kts 250°
2026-05-08 11:52 28.06004 -16.52727 873 ft 128 kts 253°
2026-05-08 11:53 28.05699 -16.53654 696 ft 129 kts 253°
2026-05-08 11:53 28.05386 -16.54586 476 ft 125 kts 249°
2026-05-08 11:53 28.05058 -16.55499 316 ft 126 kts 251°
2026-05-08 11:53 28.04742 -16.56406 214 ft 118 kts 250°
2026-05-08 11:54 28.04507 -16.57083 209 ft 53 kts 249°
2026-05-08 11:54 28.04402 -16.57389 205 ft 35 kts 250°
2026-05-08 11:54 28.04326 -16.57614 200 ft 23 kts 253°
2026-05-08 11:54 28.04305 -16.57802 197 ft 25 kts 266°
2026-05-08 11:55 28.04292 -16.58007 223 ft 25 kts 265°
2026-05-08 11:55 28.04319 -16.58165 229 ft 20 kts 322°
2026-05-08 11:55 28.04406 -16.58214 229 ft 13 kts 349°
2026-05-08 11:55 28.04466 -16.58134 230 ft 16 kts 69°
2026-05-08 11:56 28.04511 -16.58008 231 ft 18 kts 68°
2026-05-08 11:56 28.04557 -16.57864 230 ft 20 kts 71°
2026-05-08 11:56 28.04605 -16.57725 230 ft 17 kts 69°
2026-05-08 11:56 28.04637 -16.57655 230 ft 8 kts 13°
2026-05-08 11:57 28.04685 -16.57670 231 ft 6 kts 338°
2026-05-08 11:57 28.04702 -16.57678 231 ft 2 kts 338°
2026-05-08 11:57 28.04710 -16.57681 231 ft 0 kts 338°